RH
3 3 3 3 3 3 4 6 7 8 8 10 16 19 19 21 22 22 22 22 21 19 20 23 23 22 22 22 20 19 19 14 10 8 8 14 19 18 17 17 16 15 14 13 12 13 15 16 16 15 14 12 13 16 17 18 16 22 45 47 42 53 48 48 61 57 54 56 57 51 41 44 46 43 41 40 38 36 35 32 32 33 33 35 35 37 38 39
3 3 4 5 6 7 8 8 8 8 10 13 16 17 17 18 19 19 20 20 19 20 23 23 21 20 20 20 18 18 18 14 9 6 12 17 17 17 18 16 15 14 13 13 13 13 16 16 16 16 13 13 16 17 18 20 20 36 56 45 37 51 45 43 53 50 49 49 53 50 43 43 41 41 40 40 40 38 39 35 33 33 34 36 36 38 39 40
6 7 8 8 8 8 9 9 10 12 14 16 17 18 19 18 18 17 17 18 19 23 23 21 19 19 17 17 17 16 15 12 9 10 14 16 16 17 15 14 13 12 11 12 12 14 16 16 16 15 12 15 19 18 19 23 25 32 46 45 39 44 44 42 44 44 45 46 51 51 46 43 38 39 39 40 41 43 45 37 34 35 34 36 37 38 39 39
10 11 9 9 9 10 13 15 17 18 19 20 21 22 22 21 21 19 19 19 22 24 22 20 19 19 18 16 16 16 14 12 13 16 15 14 17 15 13 14 12 12 12 11 12 15 15 16 16 13 13 19 20 20 28 31 27 30 44 50 39 39 44 40 40 45 46 43 46 48 46 43 39 40 40 39 43 47 43 33 32 35 34 37 37 38 39 39
11 10 10 11 13 17 19 20 21 20 21 21 22 22 22 22 21 21 21 21 23 24 21 19 18 18 17 16 16 15 17 22 19 15 14 14 16 15 14 14 12 13 12 12 13 13 15 15 14 12 15 25 28 28 34 35 32 38 50 51 41 39 44 42 44 47 46 43 43 46 45 40 39 41 40 42 47 43 34 29 31 33 35 38 38 39 40 39
11 12 14 17 19 20 20 20 20 20 20 21 22 22 22 23 22 22 21 21 25 23 19 19 18 18 17 16 18 15 19 27 21 15 15 15 15 15 15 14 14 13 12 14 13 12 14 13 13 15 24 37 44 42 39 35 32 40 49 49 45 41 44 47 49 49 45 42 43 44 43 40 41 41 41 43 42 33 27 29 31 32 36 37 38 40 39 39
16 17 19 20 20 20 19 20 20 19 20 21 22 23 23 23 23 23 21 23 25 22 19 20 19 19 17 16 15 13 18 24 19 17 17 15 16 15 16 15 15 15 14 14 11 12 12 11 14 20 35 44 41 40 40 32 28 43 53 50 49 45 47 51 51 51 45 40 41 42 41 41 43 44 44 42 34 28 29 30 32 33 35 36 38 39 38 39
19 19 20 19 19 19 19 19 19 19 20 22 23 23 24 24 24 25 24 25 25 22 19 20 22 19 16 13 9 11 22 26 19 17 16 15 16 15 16 16 15 16 14 12 11 11 10 12 15 19 38 44 34 35 37 29 32 53 59 49 50 50 50 54 52 51 46 42 41 41 41 39 41 45 45 39 29 28 30 30 32 35 36 37 37 38 39 39
19 19 19 18 19 18 19 19 19 20 21 22 23 22 23 24 25 25 25 25 25 24 21 21 23 18 18 15 9 16 28 31 23 18 15 14 15 15 17 16 16 15 11 11 10 11 11 14 15 16 31 37 35 38 36 33 36 48 54 47 49 51 51 53 51 48 44 42 42 42 43 40 40 45 44 34 27 29 31 31 32 35 37 37 37 38 39 39
18 18 18 18 18 18 19 19 20 21 22 22 22 23 24 24 25 25 25 26 25 24 22 22 21 18 18 14 14 24 31 29 25 21 17 16 16 15 16 15 16 16 13 12 11 14 13 13 16 15 22 30 37 43 41 41 42 45 48 46 46 48 48 49 47 45 44 41 41 45 45 41 42 47 43 28 26 30 30 32 33 35 37 36 38 38 38 39
18 18 18 18 18 18 19 19 20 21 21 22 22 23 23 23 23 24 25 26 26 25 22 21 19 17 15 12 19 30 30 26 25 22 19 17 16 15 16 15 15 15 14 14 14 15 13 14 17 16 23 30 36 44 43 44 46 42 42 44 44 43 42 43 44 42 42 41 40 45 45 42 45 51 43 26 26 31 30 32 32 35 37 36 39 39 39 39
18 18 18 18 18 18 19 20 20 20 21 21 22 23 22 23 22 23 25 26 26 24 22 19 17 16 13 16 26 30 27 25 24 21 19 17 15 17 17 16 15 14 14 14 14 16 16 18 16 19 28 31 40 44 41 44 42 36 42 53 56 56 49 40 43 42 39 41 40 42 47 50 54 48 33 24 27 31 31 33 33 34 36 36 39 40 39 39
18 18 18 17 18 17 18 19 19 20 21 21 21 21 21 21 20 23 24 25 24 22 21 18 18 17 16 23 31 30 27 26 24 21 20 18 17 18 17 18 17 15 15 13 17 18 17 20 17 22 28 32 43 39 35 38 33 35 47 61 70 65 54 40 41 44 37 42 41 40 51 56 57 43 24 25 29 30 33 33 33 34 34 36 38 39 40 39
18 18 18 17 17 16 17 18 19 20 20 21 21 21 22 21 21 22 22 24 23 22 22 20 21 19 20 29 33 30 30 28 26 25 23 20 19 18 18 19 18 17 18 15 19 19 19 21 16 22 29 33 38 36 48 50 45 56 51 65 79 52 47 51 44 43 39 42 41 39 54 54 46 38 24 27 30 30 34 31 31 33 33 35 37 39 40 39
17 18 18 17 16 16 16 16 18 19 20 20 20 21 21 21 21 21 21 22 23 24 23 21 22 21 25 31 32 31 31 28 28 27 24 23 21 20 20 20 19 20 20 19 20 20 21 18 16 28 33 33 35 42 67 70 70 80 51 55 76 52 57 65 46 44 42 43 43 42 58 57 45 37 28 29 31 32 34 30 31 33 33 35 35 38 40 40
15 17 18 18 16 16 16 17 18 19 19 20 20 20 20 20 20 19 20 20 21 22 21 22 22 23 28 30 29 30 28 27 29 28 26 24 22 22 22 22 23 23 22 23 23 21 20 17 25 35 33 37 52 66 77 73 76 82 58 52 63 56 62 58 46 54 50 45 46 45 56 58 47 39 32 33 33 35 39 36 35 35 35 35 35 37 39 40
14 17 19 18 16 15 16 17 18 19 19 19 20 20 19 19 19 18 19 18 20 20 19 21 20 21 26 28 28 28 29 29 29 28 28 26 25 24 24 24 25 24 24 24 23 24 22 24 34 37 42 57 74 85 71 55 59 63 63 61 57 58 57 51 53 59 57 52 49 53 59 54 45 40 37 36 37 41 44 41 38 37 37 37 36 37 38 40
13 17 21 21 18 16 16 17 18 18 18 18 19 20 21 21 21 20 20 18 19 18 20 20 19 25 29 27 29 28 29 30 28 29 27 27 27 25 24 23 23 23 25 24 23 27 25 28 40 47 62 69 74 87 68 48 55 52 54 53 50 60 60 60 62 59 65 64 59 66 66 56 49 45 42 41 44 46 44 41 39 37 36 36 37 38 37 38
12 15 21 22 21 18 16 16 16 17 18 19 19 19 20 19 19 20 19 19 20 23 28 25 23 32 32 26 29 28 27 27 26 26 25 26 25 24 26 24 23 22 23 28 28 31 32 38 51 57 65 67 67 76 62 52 62 58 58 55 50 56 59 67 70 67 72 69 69 72 66 60 53 49 46 41 44 44 41 41 38 34 32 32 34 34 35 36
11 13 18 21 21 20 18 15 16 17 18 17 17 18 17 17 23 24 21 22 24 26 29 27 25 28 28 26 27 25 26 26 25 25 24 25 23 23 25 23 23 24 34 45 40 35 41 56 67 61 65 71 72 75 68 67 73 66 64 60 60 62 60 66 67 69 71 65 73 76 70 69 59 53 48 40 43 44 42 42 35 30 28 29 31 30 32 33
11 11 15 18 18 19 19 17 17 16 16 16 16 18 18 18 25 27 24 24 25 24 23 23 24 24 24 25 25 24 25 23 24 24 24 23 23 22 22 28 33 35 46 51 42 40 45 58 63 60 71 77 77 86 81 75 76 70 62 57 62 67 65 65 62 72 72 60 74 81 70 62 52 48 43 38 44 42 40 40 32 27 27 28 29 28 29 31
10 9 13 15 16 17 18 18 17 15 16 16 17 18 18 18 20 20 21 23 23 21 21 21 21 22 22 22 23 23 22 23 23 23 24 22 21 22 22 36 46 45 54 50 42 54 59 56 58 62 76 80 82 89 80 75 77 72 65 56 56 61 65 66 65 75 75 58 70 80 64 50 43 42 40 40 45 40 35 35 31 29 29 26 26 28 29 30
9 9 10 11 14 14 15 18 17 15 16 17 18 17 16 15 16 16 16 20 22 19 19 19 19 19 20 21 21 21 20 24 26 22 24 22 20 26 25 40 61 59 60 59 52 61 57 48 60 69 71 70 74 78 70 65 66 65 60 52 57 63 57 59 63 68 71 64 69 76 66 55 48 46 47 44 45 43 36 33 30 29 29 26 26 28 29 29
8 8 8 9 12 11 13 16 16 16 16 17 18 17 16 15 15 15 13 17 21 19 18 17 19 19 19 21 21 22 21 23 27 24 24 25 24 30 28 41 68 64 58 65 61 60 52 44 62 74 73 70 65 67 66 54 53 68 69 57 63 69 56 58 64 63 66 67 69 67 57 56 57 53 52 48 49 45 35 31 27 25 26 25 26 27 28 30
7 7 8 9 10 10 12 14 16 17 15 17 18 17 17 14 14 14 15 23 21 16 20 17 17 20 18 20 21 22 22 22 25 24 24 27 27 32 34 37 49 52 58 67 59 52 50 52 63 66 75 80 66 61 65 58 55 61 64 59 60 64 63 65 64 60 60 55 58 58 44 50 61 52 44 49 58 51 39 38 29 21 24 23 25 27 27 31
5 6 8 8 10 11 12 13 16 16 15 18 17 17 17 16 18 12 21 46 34 12 18 18 15 20 19 19 22 22 23 24 23 22 24 26 27 30 35 39 39 45 64 68 52 46 51 62 68 67 75 81 68 56 58 67 61 44 49 63 64 62 64 67 60 55 55 46 52 62 44 42 52 40 39 57 67 58 46 46 35 20 21 23 23 27 28 31
5 6 5 8 10 10 11 12 14 15 16 16 15 17 15 16 19 9 21 53 40 13 17 19 15 19 20 19 22 24 22 22 22 22 23 24 28 27 29 39 38 43 62 60 43 38 49 60 63 69 76 71 61 52 56 71 60 40 53 71 70 63 61 67 59 51 61 55 57 71 53 47 55 42 51 68 59 49 45 45 40 23 18 22 24 27 30 31
6 5 4 7 8 9 11 10 12 14 14 14 15 15 15 17 18 15 30 39 22 14 18 17 17 17 19 19 19 23 23 22 22 21 22 23 25 24 29 38 39 47 59 50 33 28 40 52 49 60 68 58 52 53 61 68 53 50 71 74 70 69 67 73 67 65 78 59 49 67 54 51 61 49 58 65 45 42 46 46 47 30 17 22 25 27 31 31
5 5 5 5 6 10 10 7 11 11 10 14 12 13 16 16 11 18 39 33 10 15 18 15 20 17 18 21 19 21 21 22 24 20 21 24 23 25 34 39 42 53 56 50 46 38 41 49 46 53 56 48 52 64 70 66 54 61 75 71 72 81 80 78 72 72 74 55 48 62 55 50 56 50 51 49 41 50 54 54 54 32 16 22 25 27 31 31
5 5 4 4 5 7 8 8 9 6 10 11 8 14 13 14 30 32 28 23 12 14 17 17 21 22 26 28 23 25 26 25 25 20 18 21 20 23 30 32 37 51 60 57 52 46 51 55 54 55 49 47 61 73 76 69 62 65 68 67 68 74 75 78 84 71 54 57 63 64 62 57 51 49 48 43 50 57 47 47 49 33 20 21 24 28 31 31
7 6 4 5 5 5 7 8 7 7 10 9 9 15 7 20 65 59 19 12 16 17 22 27 32 41 48 42 29 32 38 32 25 28 32 32 31 30 33 33 35 56 77 65 40 42 54 53 55 56 49 52 61 65 69 71 70 68 65 58 49 51 51 57 76 66 42 52 66 69 73 65 51 48 47 52 64 62 46 42 43 37 28 21 22 28 30 32
8 7 6 7 5 6 9 7 11 11 10 12 10 13 21 31 46 41 23 18 18 23 30 32 40 54 58 51 41 44 47 36 32 45 53 56 56 50 48 51 43 46 62 55 38 43 50 48 53 52 48 53 53 52 60 68 71 68 67 59 52 57 53 49 63 60 49 50 58 75 74 55 51 46 42 52 56 54 53 45 41 39 30 22 23 25 27 31
9 8 8 8 7 8 9 9 14 12 10 16 9 14 49 54 21 16 35 31 18 25 34 39 50 57 52 43 41 46 43 31 35 47 50 57 62 52 54 67 56 39 38 39 37 41 44 47 50 44 44 50 47 42 43 52 59 61 64 58 56 63 56 57 69 55 47 52 54 70 66 48 48 42 43 52 43 39 43 36 33 33 29 26 25 25 26 29
9 11 9 8 9 8 9 12 12 13 15 15 14 23 39 35 18 21 32 31 30 34 39 47 49 42 37 34 39 48 38 26 38 47 44 50 53 48 52 61 59 54 50 40 34 37 34 29 34 38 41 48 51 47 45 52 58 62 67 54 50 61 44 44 66 53 47 65 63 57 55 53 48 35 37 45 36 31 32 31 32 29 28 30 28 27 27 28
10 12 10 9 11 9 11 13 11 14 13 11 31 47 28 11 20 30 27 31 39 35 34 45 40 26 29 35 42 48 34 24 37 45 42 42 41 43 47 49 55 59 48 33 33 43 33 19 34 51 50 52 56 56 59 59 52 61 72 55 47 63 56 47 66 72 71 84 85 70 61 60 50 37 41 44 39 37 30 30 32 25 25 28 25 25 26 27
10 10 9 10 11 10 12 13 12 15 12 21 48 49 27 21 24 29 35 37 37 31 25 35 37 27 28 36 44 47 35 28 37 36 35 42 41 43 49 53 59 56 42 33 34 38 28 25 49 62 55 59 61 57 58 49 42 52 60 56 53 63 74 65 59 73 82 76 73 68 59 53 43 41 53 52 45 45 39 31 26 21 22 23 23 24 24 27
10 9 9 9 8 11 14 11 15 15 8 31 57 38 24 33 29 36 49 40 38 39 27 24 27 23 26 30 35 43 36 27 32 29 25 34 35 37 52 56 54 55 53 46 35 31 30 34 53 60 50 55 59 57 58 53 55 58 50 56 62 56 67 69 54 68 83 67 56 57 60 59 44 39 51 51 43 42 42 37 29 24 22 22 24 23 23 26
10 9 8 10 9 10 12 11 16 14 10 36 60 43 34 40 36 45 54 42 43 46 31 23 21 22 31 26 21 38 40 24 29 35 24 25 27 32 50 53 48 59 61 49 38 37 39 37 48 60 56 54 54 49 52 55 55 54 48 52 54 46 53 59 54 57 58 54 56 60 68 67 54 51 51 43 35 32 31 36 38 33 26 24 25 23 23 24
11 10 8 11 10 7 11 14 11 11 21 45 58 48 43 47 47 51 51 47 47 40 31 30 26 26 34 29 20 33 41 26 26 33 22 20 26 29 41 44 43 58 59 51 51 50 44 32 33 51 56 51 48 42 50 61 57 54 56 59 62 65 66 61 58 58 54 56 62 63 60 49 52 69 59 33 28 28 27 33 38 35 29 26 26 24 24 24
10 10 10 10 10 10 11 10 10 20 36 48 53 51 47 45 47 50 49 51 48 35 31 36 33 27 29 33 28 31 47 45 35 30 24 27 30 29 42 47 43 53 57 53 56 55 46 31 30 47 50 40 39 42 49 62 70 71 69 71 74 73 69 59 57 68 70 70 75 76 58 30 34 60 51 27 26 28 30 34 35 35 29 25 25 25 24 24
9 10 11 9 10 11 8 11 27 49 60 55 51 55 53 44 44 49 49 50 47 38 36 40 39 33 31 32 28 32 50 57 49 39 32 33 28 23 43 58 52 52 54 51 52 52 45 39 43 52 46 34 38 52 60 66 77 81 72 75 79 73 67 53 52 77 85 73 74 78 61 33 31 47 41 28 31 30 32 38 40 36 29 24 24 23 24 25
9 15 13 8 11 10 10 28 48 60 67 60 51 55 56 47 43 48 47 44 45 43 40 43 47 45 41 37 37 45 49 47 49 41 29 30 27 26 51 71 66 59 55 52 55 54 49 50 57 55 45 37 39 55 71 72 72 72 66 71 76 74 67 49 47 73 82 73 77 86 78 48 34 48 46 34 37 35 31 39 41 34 26 23 24 21 22 24
10 14 10 7 12 7 10 32 47 56 64 58 51 53 52 46 42 44 46 43 44 45 41 45 47 41 41 45 46 45 39 36 40 32 27 37 42 49 69 75 67 63 57 54 55 52 51 53 53 48 46 45 44 53 66 66 63 62 65 74 71 65 70 67 67 73 72 75 86 93 86 49 31 57 60 39 39 37 30 34 34 28 24 23 22 22 21 21
9 11 10 9 9 8 18 32 42 59 64 49 46 51 45 45 47 45 45 47 50 51 47 49 46 37 45 57 51 41 34 29 30 29 35 47 53 62 70 66 65 68 60 57 56 46 45 53 49 41 40 40 43 51 55 57 60 59 68 83 77 70 79 80 76 71 64 69 75 79 74 41 25 50 49 32 34 32 26 28 25 25 27 23 23 24 23 22
8 9 9 9 6 8 22 31 40 63 67 49 49 53 43 42 45 43 45 48 52 51 45 45 46 46 57 61 52 51 46 29 24 35 44 48 54 64 68 63 66 69 64 63 61 46 42 50 43 34 35 36 37 42 41 45 52 52 63 81 79 74 73 65 65 66 64 69 72 71 64 35 19 29 27 23 31 29 25 26 24 26 27 25 27 27 25 24
10 14 16 17 10 8 19 21 24 46 56 47 43 42 37 37 37 39 43 44 46 47 46 47 46 47 52 50 45 54 60 46 37 45 50 49 51 60 69 72 67 66 69 68 62 57 58 58 50 43 42 38 34 33 34 40 44 39 48 63 71 77 73 65 73 72 66 77 75 58 51 41 32 30 27 26 28 27 27 25 24 27 28 28 30 27 27 26
14 23 29 28 15 13 25 23 20 32 38 37 35 31 35 41 35 33 38 40 44 47 48 48 45 38 34 34 36 43 55 58 51 46 49 59 64 61 67 79 76 71 75 71 61 63 65 61 61 62 56 46 43 41 39 45 47 41 44 49 60 81 81 68 68 61 57 69 61 39 43 51 42 32 30 30 28 26 28 26 27 31 30 28 26 24 27 25
17 21 24 24 19 24 33 28 28 34 33 43 53 43 40 43 31 26 33 36 40 42 37 35 38 42 42 36 30 31 39 47 47 44 45 54 64 60 58 75 84 77 73 71 63 59 61 64 68 68 64 57 54 49 44 49 53 52 55 52 53 74 82 67 59 54 52 55 44 32 41 46 39 32 30 29 28 29 31 30 32 32 29 26 24 25 27 26
13 17 17 17 20 27 33 29 29 31 31 47 58 45 38 36 25 27 36 32 33 37 32 24 26 45 66 58 37 31 36 36 36 41 44 44 50 51 44 51 69 73 67 68 67 54 54 72 82 74 66 58 53 54 57 63 67 61 56 54 54 65 73 67 60 56 53 52 44 39 43 44 38 36 34 31 30 33 34 32 31 30 27 26 26 29 30 27
9 12 11 13 17 21 27 26 26 34 40 41 39 35 41 41 29 35 43 33 26 30 35 32 29 49 79 72 44 35 36 30 28 34 40 42 50 56 46 39 54 70 69 71 75 56 42 65 88 78 60 51 53 63 67 67 69 61 48 46 51 58 65 68 66 62 62 63 56 51 58 58 44 36 36 35 32 34 35 32 29 27 27 28 29 31 30 27
7 8 6 13 22 24 23 18 24 46 52 40 32 33 39 41 39 44 45 36 30 31 37 40 37 52 75 68 51 50 46 38 39 42 43 44 48 52 45 37 48 67 74 76 74 57 45 65 88 80 59 52 56 64 64 57 58 60 53 47 51 61 69 72 71 69 66 62 57 57 62 55 38 33 36 34 30 32 32 29 28 28 27 29 31 31 28 26
7 8 5 11 21 23 21 21 28 39 36 28 32 36 32 37 46 43 31 30 38 40 42 45 42 48 58 51 43 49 48 45 48 51 53 55 55 55 52 50 49 59 76 83 77 71 65 64 73 70 61 60 61 60 57 46 37 42 45 42 44 55 61 60 61 64 61 52 50 53 49 38 32 36 39 34 31 30 28 27 30 32 30 29 30 29 27 27
Wind_Speed
9 8 7 6 6 6 7 8 8 7 7 8 7 6 5 5 4 3 3 2 1 4 6 7 10 8 3 2 1 5 9 9 7 7 11 15 13 10 9 7 7 7 6 6 5 6 9 8 6 6 3 4 10 10 9 9 8 5 3 4 3 3 3 5 7 6 4 5 8 12 15 9 5 10 9 6 8 8 9 10 9 10 10 9 10 9 8 8
9 8 8 7 7 7 8 8 8 9 9 8 6 5 4 2 2 2 3 3 3 4 7 10 13 9 1 3 4 5 9 7 7 14 16 13 10 9 8 7 7 6 5 4 4 5 7 7 6 4 3 8 10 8 7 9 10 6 3 4 3 4 3 5 9 9 5 7 13 14 13 9 7 11 10 5 6 7 7 9 11 12 11 11 12 11 11 10
9 8 8 8 9 10 11 12 11 11 9 7 5 3 2 1 1 3 4 3 1 4 10 12 12 7 5 6 7 7 10 8 9 16 15 11 10 9 7 7 6 5 5 3 3 5 6 6 5 3 7 12 10 8 9 9 9 5 4 4 2 4 3 3 10 10 5 13 17 13 11 8 7 11 10 5 5 6 7 11 12 13 12 11 13 13 12 11
9 9 10 11 13 14 14 13 12 10 8 6 5 5 4 3 1 1 1 1 2 5 9 10 10 5 10 9 8 7 9 11 13 16 11 10 9 8 7 7 6 5 6 4 4 5 6 5 5 6 11 11 9 10 10 10 6 4 4 3 3 5 4 3 10 8 7 18 19 12 9 6 9 11 9 6 2 5 13 18 14 11 10 9 12 13 13 12
12 13 14 15 16 15 13 12 10 9 8 7 7 6 5 4 2 1 1 1 1 2 7 10 10 9 11 9 6 3 3 5 11 13 10 9 8 7 7 6 6 6 6 6 6 6 6 5 6 7 11 8 8 8 7 9 8 7 4 2 4 5 3 4 10 7 11 19 16 12 9 6 10 9 9 9 5 8 15 18 15 11 9 8 11 13 14 15
15 16 16 16 15 13 12 10 9 8 8 7 7 6 6 5 4 2 1 0 3 5 9 14 15 13 11 9 4 2 5 4 8 12 11 9 7 6 6 6 6 4 5 5 4 6 6 6 6 7 9 7 8 7 6 8 6 6 3 3 3 3 4 7 9 9 15 19 14 12 8 6 10 7 9 14 16 18 16 13 13 13 13 13 14 15 16 16
16 16 16 15 13 12 10 8 7 8 8 9 9 10 10 9 9 7 4 4 8 7 10 14 17 15 15 15 12 14 19 13 11 12 10 8 6 5 5 4 4 3 2 2 2 4 5 5 10 13 10 6 7 7 9 14 13 10 3 3 5 5 7 8 8 11 16 16 13 11 7 6 9 7 7 16 25 24 19 17 16 16 17 18 17 17 17 18
16 15 14 13 10 9 7 7 7 8 10 12 13 13 13 13 14 12 10 6 10 8 7 8 9 10 15 15 16 23 25 18 13 12 9 8 6 5 4 3 4 3 2 3 5 5 5 10 15 14 8 5 6 5 7 14 15 10 3 1 6 8 7 7 9 12 11 10 10 7 7 7 7 7 9 22 29 25 23 23 21 20 20 21 20 20 19 19
15 13 11 10 8 7 7 7 8 10 13 15 17 18 18 18 18 17 16 10 8 7 6 4 4 6 8 7 12 19 18 16 13 11 8 7 7 5 2 2 5 4 4 7 10 7 7 12 11 7 9 9 8 5 5 6 6 5 5 5 7 8 7 8 9 9 8 7 7 5 7 7 6 6 12 25 24 20 23 25 23 24 24 24 23 22 22 21
12 10 8 7 6 7 8 9 11 14 17 18 20 20 20 20 18 18 18 15 10 5 5 3 3 4 4 6 13 13 11 13 12 9 9 9 8 5 3 4 4 3 3 5 7 4 3 9 12 15 18 14 9 8 8 6 7 10 13 13 12 9 6 7 7 6 6 4 4 5 6 8 5 1 10 20 13 10 17 23 24 25 28 27 24 24 24 24
9 7 6 6 7 9 10 11 13 17 18 19 19 19 17 16 15 14 14 14 13 13 12 10 8 9 12 19 24 14 9 14 11 9 8 5 5 9 11 13 10 4 2 5 9 9 11 16 19 15 11 11 11 13 13 12 13 13 15 13 10 7 5 4 5 4 4 2 3 4 7 10 4 3 14 20 14 13 14 19 24 27 29 28 26 26 26 27
7 6 6 7 8 10 11 13 15 18 18 18 17 14 13 13 14 13 12 11 9 12 19 21 20 19 23 29 29 17 14 17 14 13 10 5 8 11 13 14 14 11 6 12 19 17 16 14 9 7 9 14 10 8 12 12 10 10 10 7 6 6 3 1 3 2 2 0 2 1 6 7 5 11 20 18 15 17 15 17 22 28 30 29 28 27 28 29
8 7 7 7 8 9 11 13 15 17 17 16 13 10 10 11 13 14 13 13 12 13 14 15 18 19 24 26 21 16 17 18 16 16 15 13 13 13 11 9 11 13 9 12 16 11 8 4 5 15 20 14 7 8 12 8 8 7 7 4 3 6 2 2 2 1 2 0 1 2 3 6 7 18 21 15 16 17 18 21 22 26 30 31 31 30 31 31
10 8 7 7 8 9 10 12 13 14 14 12 9 7 7 7 9 10 11 12 13 13 11 12 14 19 26 20 13 15 16 16 17 18 19 16 16 19 18 15 13 14 10 12 15 14 13 11 14 23 20 15 15 15 10 6 6 3 3 3 2 2 3 3 1 2 2 1 2 5 1 6 9 16 17 13 17 19 21 25 25 27 29 31 32 32 33 33
10 8 5 5 7 8 9 10 11 11 11 9 6 5 5 7 7 8 9 9 11 12 12 13 11 17 26 18 11 13 12 12 16 19 20 16 17 22 23 22 23 22 20 21 21 19 17 16 19 20 16 18 18 10 4 4 4 3 1 2 2 1 4 6 2 3 2 1 4 5 2 7 10 17 16 9 12 15 19 24 25 27 28 29 32 33 35 35
11 8 4 4 6 8 9 10 10 11 10 7 4 4 6 10 11 11 11 11 13 13 14 16 14 18 20 12 9 9 7 10 13 15 17 18 19 22 23 23 24 23 23 23 19 15 13 15 19 17 11 11 8 4 5 4 4 3 2 2 2 0 3 5 2 1 1 1 2 3 3 6 7 9 6 3 7 10 15 24 27 28 29 29 31 33 35 36
11 8 5 4 7 9 10 11 11 10 8 6 4 5 8 10 10 11 11 11 13 11 13 17 15 18 16 7 5 8 9 11 10 9 11 13 15 16 16 15 16 15 13 13 9 7 9 11 13 9 6 6 3 3 5 3 2 3 2 2 2 2 1 3 3 3 1 1 3 2 4 10 12 13 16 17 17 18 21 28 30 29 29 30 31 33 35 36
11 9 7 6 7 9 11 11 10 8 7 4 4 6 5 3 2 4 5 4 5 5 6 8 5 8 11 7 6 8 8 9 7 6 6 6 6 6 6 6 7 6 5 6 6 7 10 9 7 3 5 5 4 5 4 2 2 2 0 1 2 2 2 3 3 2 2 1 4 2 6 14 16 19 29 29 19 17 23 26 28 28 28 28 29 32 33 36
9 8 7 8 8 9 10 11 9 8 6 7 9 10 10 11 10 9 10 8 6 4 3 10 10 7 5 6 10 11 9 7 6 5 5 6 6 2 2 1 2 3 4 4 7 10 9 6 6 4 3 3 3 3 4 4 4 4 3 3 2 2 4 4 4 3 2 1 5 7 8 13 16 15 23 28 16 14 23 25 26 26 24 24 25 26 28 32
7 6 6 10 11 10 10 11 10 9 11 15 16 15 15 19 17 15 23 26 22 17 13 17 19 13 8 6 9 12 11 8 6 4 3 4 4 3 3 2 4 9 7 1 3 7 6 5 5 0 4 4 4 2 3 2 4 5 4 2 2 3 5 4 3 3 2 2 5 7 8 12 16 14 20 28 19 15 22 23 24 22 19 20 20 21 22 24
6 5 5 7 10 11 12 12 12 15 17 15 9 5 5 8 9 10 20 25 24 23 21 20 18 16 13 9 7 8 9 11 9 5 2 2 1 2 4 4 7 9 6 3 1 4 6 6 2 4 6 3 2 3 4 3 4 4 3 1 2 3 5 4 2 3 0 2 4 2 4 12 15 14 20 24 15 15 21 18 18 18 16 18 18 19 19 19
4 5 6 5 5 8 11 13 17 19 15 7 4 7 10 12 14 17 19 18 19 22 20 19 18 16 14 12 9 6 8 12 14 12 8 5 4 2 4 8 7 3 5 5 2 4 6 2 5 4 4 5 4 4 4 4 4 3 2 1 3 2 4 4 2 3 1 2 4 3 5 13 16 14 18 20 15 18 20 15 16 17 17 18 17 18 18 17
3 4 7 8 7 6 7 12 17 16 9 4 6 12 18 18 18 19 18 13 13 16 16 17 18 17 14 12 9 8 10 11 12 14 12 9 10 9 8 8 6 3 6 5 4 4 4 2 5 4 6 6 5 3 4 4 3 2 2 1 3 3 2 3 3 4 1 2 3 5 6 11 13 10 12 15 13 15 15 14 16 17 18 18 17 18 18 17
4 5 7 8 9 9 8 11 15 13 9 4 4 10 14 13 12 12 11 9 7 9 12 14 16 17 13 11 8 8 13 13 12 15 13 9 8 8 7 6 5 4 4 5 8 6 2 2 2 5 3 3 4 3 4 3 2 2 3 3 3 3 3 5 4 5 3 1 1 4 6 6 6 6 6 5 4 8 11 12 16 17 17 17 17 18 17 16
6 6 7 8 8 9 9 9 14 15 14 9 8 10 9 9 9 6 5 6 4 5 8 8 10 13 12 11 6 3 8 12 14 16 13 10 5 3 4 4 4 3 2 2 7 5 1 2 3 4 3 4 6 3 1 4 1 4 4 5 5 5 5 5 4 5 4 2 1 4 5 5 4 4 7 4 5 8 9 8 15 18 16 17 17 17 15 15
8 8 9 9 9 9 8 7 10 15 16 13 13 13 5 6 9 8 3 5 3 5 7 5 5 9 11 12 7 1 3 6 10 14 12 11 6 2 3 4 3 3 4 3 3 2 1 1 2 3 3 5 6 2 2 5 3 1 3 5 4 4 3 3 2 1 1 3 1 3 0 5 6 5 8 5 6 9 8 8 15 19 17 16 17 15 14 14
7 8 10 12 12 11 9 7 10 13 14 14 16 15 5 5 7 7 3 5 4 3 4 5 4 6 8 12 10 3 1 4 4 11 12 10 8 3 2 2 2 2 3 3 2 0 3 2 2 3 5 5 3 1 4 6 4 2 2 4 4 4 4 3 1 1 2 3 2 2 2 3 6 7 6 4 6 9 9 9 13 16 16 15 15 14 13 13
4 7 10 13 14 13 11 9 12 14 12 13 15 13 7 7 8 6 3 5 3 3 3 4 3 5 5 9 13 8 4 5 3 7 10 8 8 5 3 1 2 1 2 4 1 1 3 2 2 3 5 1 3 3 5 7 1 4 2 4 3 4 4 3 3 1 1 3 4 3 2 1 6 7 4 4 4 8 10 9 11 14 15 14 14 14 12 13
5 6 9 12 14 15 13 10 12 14 13 12 10 11 10 8 7 3 5 3 2 1 2 4 2 6 7 4 11 12 8 8 5 6 8 6 6 6 4 3 5 5 2 3 3 3 1 1 3 5 4 2 4 2 5 6 1 1 4 4 4 3 3 3 3 2 2 2 4 4 2 1 5 6 4 2 2 6 9 8 9 14 15 13 14 14 13 12
7 8 9 11 13 14 12 10 11 13 13 12 9 8 8 5 2 3 3 0 1 2 4 5 3 9 11 3 7 13 8 7 10 9 7 6 7 7 6 3 4 5 1 3 2 2 1 1 1 1 2 3 2 2 2 2 1 3 4 3 4 3 3 2 1 2 2 3 6 5 2 1 3 6 4 3 5 6 6 6 8 13 17 15 13 13 13 12
7 8 9 10 11 11 10 8 8 9 10 10 8 5 4 1 3 6 2 1 1 4 5 5 3 6 8 4 4 10 6 7 13 11 7 6 7 8 6 2 3 4 3 5 2 2 3 1 1 1 2 2 4 2 2 2 3 4 1 1 2 3 3 3 4 3 2 4 5 4 2 1 2 7 5 5 7 6 6 7 8 12 19 18 13 13 14 14
8 8 8 9 10 9 8 7 7 7 6 7 7 6 4 1 3 3 1 3 2 3 3 2 3 4 5 4 4 6 4 5 10 8 4 3 4 5 5 1 1 4 4 4 3 4 2 2 1 1 1 2 3 0 2 2 2 3 1 3 4 4 4 3 4 2 2 4 3 1 1 1 6 9 10 11 13 11 9 10 12 14 20 22 19 17 15 15
11 8 7 8 8 7 8 9 8 7 6 8 9 4 5 5 2 1 2 3 2 2 1 1 3 2 2 4 4 5 2 2 6 4 1 1 4 3 2 1 1 2 2 2 2 5 4 4 2 2 1 0 3 1 2 2 2 3 2 3 3 2 4 4 4 3 4 5 3 1 1 3 5 7 10 12 14 15 13 15 18 19 22 23 22 19 16 16
14 11 7 7 7 7 8 9 8 7 7 9 8 2 5 4 0 0 1 3 1 2 1 1 3 3 2 3 3 3 1 1 3 3 2 3 4 3 3 3 2 2 2 1 1 1 2 4 2 2 1 2 1 1 1 1 2 1 2 3 2 3 2 3 4 2 5 5 4 2 1 3 3 5 7 10 14 18 17 16 16 17 18 19 19 18 17 19
14 11 8 8 8 7 7 8 7 6 8 9 5 5 4 1 2 1 1 3 2 2 1 1 3 4 4 3 2 1 1 2 3 4 4 4 2 0 1 3 3 2 3 1 1 1 0 5 4 1 3 1 1 1 1 4 2 1 2 3 1 3 4 1 3 4 2 4 4 2 3 5 4 8 11 8 10 12 9 7 8 11 14 15 17 19 20 21
13 11 9 9 7 6 6 7 7 6 9 8 6 6 3 2 2 3 2 2 1 1 1 2 4 5 4 5 3 2 2 1 2 3 2 2 2 3 1 2 1 1 2 2 1 1 1 5 4 3 2 2 2 2 0 1 1 0 1 1 2 3 5 3 1 0 4 2 4 2 3 5 4 8 10 8 7 6 5 5 9 13 13 15 18 20 21 23
12 12 12 11 8 6 6 6 7 8 8 5 6 3 3 1 1 2 1 1 2 1 2 1 2 3 1 3 4 5 3 2 2 2 1 0 1 3 2 2 2 2 2 2 2 1 1 5 5 0 1 1 2 1 3 3 1 2 1 3 2 2 4 4 0 4 4 1 4 1 3 6 4 4 7 8 6 7 7 7 12 14 13 15 19 21 23 24
7 12 16 13 9 7 6 7 8 8 6 6 6 2 1 0 1 1 1 1 2 1 4 2 0 1 2 1 3 5 4 3 3 3 1 1 0 3 2 0 1 1 1 2 1 0 2 3 6 1 2 3 3 1 3 5 3 2 3 2 2 1 1 1 1 1 2 3 5 4 5 4 3 4 6 6 6 8 9 8 8 11 13 18 22 25 27 27
3 8 15 15 9 8 8 8 8 6 5 7 3 1 0 0 1 1 1 2 1 1 3 1 1 1 2 2 2 4 3 2 2 2 1 0 1 1 2 0 1 1 1 2 1 1 2 0 5 3 1 3 3 0 2 2 4 3 2 2 2 2 3 1 1 2 2 2 3 5 7 5 6 7 5 6 8 9 10 8 6 10 15 21 25 28 30 31
4 5 12 13 8 9 9 8 7 6 6 4 3 2 0 0 0 1 1 3 2 2 1 2 1 1 1 2 1 2 2 1 0 1 1 0 1 1 1 1 1 1 0 0 1 1 2 1 4 5 3 3 2 2 4 4 2 2 1 1 2 1 1 1 1 2 3 2 2 2 6 9 7 5 6 8 10 9 9 8 7 12 19 26 29 30 32 33
4 4 10 11 8 8 8 8 9 9 6 3 2 2 1 1 2 2 3 3 3 3 2 3 3 1 1 1 1 1 2 2 1 1 2 1 1 2 2 1 1 1 1 1 0 1 1 1 3 4 4 3 4 2 1 3 4 4 3 3 2 2 2 0 3 2 2 2 3 3 4 12 6 4 6 8 8 9 9 7 10 16 24 31 33 33 34 35
10 5 10 12 7 6 7 8 9 6 4 3 3 3 2 1 2 3 3 3 3 3 3 3 2 2 1 1 1 0 1 1 1 1 1 2 2 1 2 2 2 2 1 1 2 1 1 2 0 5 6 4 4 2 2 2 3 4 1 1 3 3 4 4 3 3 0 1 1 4 2 11 6 4 6 7 6 9 10 9 13 22 29 33 35 36 36 38
18 12 14 13 6 6 8 7 6 6 4 3 3 4 4 3 3 3 3 3 3 3 3 2 2 2 2 1 1 1 1 2 1 0 1 2 2 3 3 2 3 2 2 2 2 2 1 1 2 5 6 3 4 2 3 1 3 3 1 1 3 2 3 5 5 3 2 3 2 2 3 10 8 1 4 6 7 10 14 14 17 25 32 35 37 38 38 39
22 22 25 20 9 7 8 4 2 3 2 1 4 5 4 4 4 3 2 3 3 2 2 1 2 3 2 1 2 1 1 1 1 1 1 1 2 4 2 1 2 2 1 1 1 2 1 1 2 4 7 7 7 6 5 4 1 1 3 1 2 3 5 3 2 2 1 5 7 4 5 10 9 4 5 8 8 12 19 20 19 22 30 35 38 40 39 39
12 16 25 28 23 19 13 6 6 5 1 2 4 4 3 3 4 3 2 2 3 2 2 1 0 1 1 2 2 1 1 1 1 2 2 1 4 2 1 2 3 2 1 3 4 2 1 2 1 1 4 5 6 7 6 4 2 1 2 2 4 4 6 3 1 2 3 4 6 6 7 11 13 14 17 16 10 12 20 24 23 23 26 31 36 40 40 40
6 5 9 18 26 29 21 11 8 6 4 4 3 3 2 2 1 2 2 3 2 3 3 2 2 2 1 2 2 1 1 1 1 1 1 3 4 3 2 3 4 2 1 3 3 2 2 1 3 5 6 7 7 8 5 2 4 7 6 6 7 5 5 4 3 3 5 2 3 9 11 12 18 21 20 18 15 15 19 23 27 28 30 34 38 40 40 41
7 3 3 5 12 18 18 15 12 6 4 4 3 1 1 2 2 2 2 2 2 2 2 1 1 1 1 2 2 1 2 1 0 1 2 4 4 3 2 2 2 1 2 3 2 2 4 1 4 5 9 10 8 11 9 3 6 11 11 11 9 6 7 7 7 8 4 3 7 13 8 6 15 20 17 18 17 15 17 23 28 32 35 39 42 42 41 42
8 4 4 5 4 4 7 11 12 11 7 4 3 0 2 4 3 2 2 2 3 3 2 2 4 3 1 0 1 1 3 4 2 2 1 2 4 4 3 0 1 1 2 2 1 3 4 3 4 3 7 10 9 13 12 7 7 9 11 16 11 7 10 12 15 11 6 5 13 14 8 8 15 18 18 19 19 17 21 27 32 34 35 38 40 40 40 42
13 9 8 10 7 3 3 3 5 11 10 5 3 2 2 3 3 2 2 2 3 3 3 2 3 4 2 2 1 1 2 3 5 5 1 1 4 3 3 2 2 2 2 1 1 1 3 3 4 2 7 11 11 12 9 5 5 7 13 15 10 9 12 14 15 10 7 12 18 16 16 16 17 18 19 25 29 27 27 32 32 31 32 35 38 38 39 40
13 11 9 12 12 8 7 4 3 6 7 5 4 2 1 1 2 3 1 2 2 3 3 2 4 3 1 2 2 1 3 2 3 5 2 1 3 1 1 2 2 2 2 1 1 1 2 3 1 3 5 11 7 5 4 4 6 9 16 16 7 7 9 9 10 7 6 12 14 12 13 14 17 19 19 25 31 26 22 26 28 29 32 35 37 38 39 37
16 14 11 12 8 8 8 5 3 5 4 5 3 1 1 1 2 3 1 1 1 1 1 2 4 2 1 2 1 4 6 4 6 10 7 5 5 3 2 2 2 2 2 1 1 1 1 2 3 5 5 8 3 6 9 9 7 8 16 16 6 5 5 5 6 6 7 7 7 5 6 8 12 13 15 22 27 22 20 22 24 31 40 41 38 37 36 34
16 14 12 13 7 6 6 5 5 5 2 2 2 1 1 1 2 1 1 1 2 3 3 2 2 2 2 3 2 5 8 8 10 13 12 10 11 9 8 7 3 1 2 2 1 1 2 1 3 4 3 7 5 8 11 11 8 6 8 6 4 5 6 6 5 7 9 7 3 4 7 7 8 11 13 17 21 23 27 26 24 31 43 46 39 33 32 34
Wind_Direction
139 140 143 145 143 142 140 141 143 134 123 120 116 115 120 126 138 149 157 164 331 322 331 340 339 348 334 252 126 65 56 44 44 95 87 66 63 67 69 76 90 101 105 110 119 125 124 128 126 108 96 66 65 63 58 52 54 71 90 81 110 165 194 182 177 181 153 153 178 177 176 175 180 193 197 205 213 214 212 206 201 210 213 221 235 247 258 268
134 135 138 135 131 130 127 127 124 118 115 112 109 111 114 124 160 208 219 257 305 324 332 338 342 354 19 164 138 99 64 58 77 82 74 67 75 75 72 79 83 86 86 93 120 139 141 133 122 122 120 80 63 63 72 47 43 59 97 86 131 198 191 169 172 174 151 154 171 175 180 191 185 184 184 190 221 216 223 219 212 222 221 224 236 244 254 261
126 128 127 123 120 117 115 115 113 112 110 108 104 98 91 97 211 244 243 256 342 338 334 348 351 1 122 126 128 110 66 69 68 58 64 80 82 77 76 76 72 74 71 76 111 135 150 132 114 121 103 84 60 69 70 40 38 41 67 88 186 200 158 148 169 171 167 163 164 171 184 198 189 179 181 195 230 230 234 222 216 227 225 223 235 243 250 256
118 120 119 118 117 113 112 110 108 108 103 101 95 87 87 83 94 273 247 156 25 344 347 8 9 46 129 123 116 114 72 61 39 35 57 80 78 74 70 68 63 67 67 76 108 129 147 127 125 117 93 75 48 64 49 27 45 41 56 110 172 155 124 147 170 170 170 165 163 167 174 196 193 183 195 201 205 249 239 224 216 223 223 220 231 242 248 254
113 117 117 117 116 112 109 106 104 102 99 99 96 94 91 80 65 19 36 69 5 17 33 44 51 82 122 128 122 136 72 40 18 33 64 71 73 69 62 59 56 71 78 89 110 123 138 139 142 105 77 55 28 54 31 22 68 64 37 109 135 142 115 147 165 166 164 163 163 164 164 195 192 193 215 207 198 234 236 227 225 227 227 232 236 245 250 255
115 117 117 117 113 110 107 104 102 100 102 102 101 100 90 82 66 36 352 144 157 119 67 65 75 82 95 98 110 134 98 65 12 41 62 63 67 58 53 47 47 75 91 100 116 125 144 158 144 88 73 57 34 55 34 23 84 97 43 48 92 148 125 143 160 162 164 164 167 169 176 198 189 214 237 225 231 238 239 234 236 239 236 241 244 248 251 255
118 118 117 115 111 110 106 102 103 102 106 106 105 98 89 81 67 55 48 102 148 128 82 81 84 88 91 91 103 95 80 60 33 47 56 58 56 37 34 27 37 67 85 108 154 146 153 154 122 93 84 78 59 68 57 56 78 99 97 35 72 110 118 140 158 161 166 169 173 173 189 203 197 222 252 241 241 244 246 245 248 248 241 242 246 248 251 255
120 119 118 115 111 107 101 101 104 106 110 109 103 93 86 79 70 64 59 97 151 141 111 96 81 99 103 99 96 76 53 32 37 52 48 53 44 24 32 30 54 65 67 95 126 143 140 127 116 93 75 79 88 86 66 66 60 63 102 102 87 95 109 135 150 158 167 175 176 183 208 216 223 239 262 259 255 254 252 250 253 250 243 244 246 249 252 255
122 122 119 114 108 101 100 103 104 110 113 109 101 92 85 79 73 69 65 80 139 166 173 123 71 110 111 102 85 62 32 16 29 35 32 36 24 15 31 56 68 72 84 105 116 124 129 125 120 117 116 106 95 72 44 61 41 47 104 109 94 89 103 132 144 151 165 185 186 211 237 234 248 267 269 266 267 268 257 251 249 244 243 245 247 250 253 257
126 125 121 114 108 105 106 103 109 117 116 111 105 98 91 83 75 69 66 67 83 124 177 156 88 101 118 120 91 65 25 29 30 18 21 14 15 33 61 69 72 90 112 124 122 108 134 133 121 120 114 99 79 54 39 76 105 106 102 90 83 91 105 131 145 151 169 201 213 225 256 254 251 278 265 267 272 275 257 246 242 239 242 247 248 251 253 258
133 131 125 120 115 113 109 108 118 122 121 119 113 105 94 82 72 66 65 66 72 83 93 106 109 109 116 100 87 75 44 51 46 39 40 12 45 73 71 64 57 59 187 150 115 100 111 121 119 112 98 93 86 68 73 98 111 109 102 81 54 72 99 125 148 161 175 213 258 240 273 268 242 189 252 264 269 271 263 246 240 239 244 249 250 252 254 258
136 131 125 122 119 117 114 116 125 128 128 126 117 105 85 71 65 63 68 72 82 99 102 105 102 104 102 84 76 77 65 59 52 54 65 72 74 69 68 68 65 74 104 115 109 109 115 122 124 110 108 119 108 74 93 106 106 95 89 75 7 28 67 185 156 164 184 214 318 290 294 274 207 223 247 263 267 266 265 254 245 242 247 251 251 253 255 258
119 115 112 112 115 120 123 126 131 133 134 129 116 98 77 64 67 72 79 80 87 103 111 111 104 98 91 78 74 81 72 63 56 57 63 65 70 68 70 83 91 93 94 102 105 105 109 141 159 119 114 116 111 112 118 102 89 78 59 79 12 8 359 230 168 176 181 142 23 69 309 283 235 235 246 263 264 264 263 258 253 248 250 251 252 254 255 258
96 95 100 106 112 120 130 136 140 141 142 135 117 92 66 55 74 88 89 84 82 85 90 104 105 94 89 88 91 87 78 70 60 59 63 63 72 74 76 85 93 96 91 86 90 88 96 123 131 112 101 101 111 116 107 55 56 63 15 50 52 9 281 266 226 182 162 190 153 102 277 271 271 264 268 270 259 261 260 258 258 255 255 254 253 253 256 258
82 80 92 114 120 120 126 137 146 151 153 147 123 81 56 61 87 104 98 92 87 82 87 97 99 94 92 94 105 97 83 71 62 62 67 66 72 78 80 83 85 88 88 86 89 95 107 124 114 95 88 102 110 106 61 12 24 44 65 327 351 95 278 298 284 191 187 199 158 120 258 266 277 282 287 271 244 251 258 263 264 261 260 258 256 254 256 260
79 74 82 123 132 127 128 134 141 147 151 148 114 65 82 91 96 103 102 100 93 87 88 88 89 93 93 91 96 96 75 61 60 66 73 73 77 83 84 84 85 87 88 91 94 99 109 113 96 84 88 99 96 81 52 26 356 6 105 194 284 81 302 313 354 293 236 157 189 174 245 278 273 271 271 223 247 267 270 274 273 269 266 262 259 256 256 260
74 66 68 114 138 139 136 138 143 145 141 131 97 100 114 103 98 103 102 102 99 94 86 84 86 79 74 82 84 67 58 56 59 75 79 76 79 84 87 87 85 84 87 92 95 95 97 96 92 83 72 70 51 79 65 15 327 320 28 94 243 201 256 299 328 347 45 188 255 217 227 259 264 267 270 270 276 280 275 276 279 278 274 268 264 260 258 260
71 63 62 93 131 140 140 141 142 139 132 118 105 127 133 100 131 144 130 133 108 94 72 58 72 71 57 58 61 50 54 54 55 69 69 67 72 80 96 93 73 71 83 81 56 61 78 82 94 86 30 33 18 65 100 212 194 215 255 84 296 275 229 252 276 317 65 203 247 230 248 259 267 274 278 281 280 273 272 276 281 282 278 274 269 263 261 260
74 70 70 82 108 132 142 144 138 131 120 107 104 110 107 92 96 96 90 94 80 85 68 41 58 100 91 57 62 61 55 48 44 59 74 65 57 65 117 89 32 56 84 73 26 37 62 69 71 63 4 349 344 75 142 190 159 155 167 158 183 276 264 234 247 267 145 213 245 226 241 264 274 280 282 286 287 276 277 280 280 279 278 278 274 270 267 263
81 87 91 82 87 108 130 138 137 130 116 111 106 102 100 89 80 72 74 77 77 82 84 70 71 89 96 72 72 68 55 48 44 66 89 54 48 63 67 75 74 65 60 49 354 19 56 71 56 100 239 263 269 189 138 121 117 116 108 109 175 224 278 257 247 291 175 210 256 230 240 265 272 275 277 282 289 283 276 274 274 276 279 279 279 279 276 273
94 109 132 98 84 92 113 127 130 129 123 118 105 84 95 90 83 86 80 76 76 79 78 76 77 77 75 69 71 75 69 64 59 58 43 357 41 47 43 68 78 60 17 324 338 10 57 74 359 258 226 236 250 154 117 88 80 77 110 86 306 223 260 262 224 300 204 202 268 267 281 273 268 270 273 278 282 272 267 263 269 275 280 282 282 284 287 287
123 136 165 165 127 103 112 128 135 138 136 113 61 84 104 107 103 100 93 83 75 76 75 74 73 69 69 69 68 73 75 64 51 49 49 62 88 68 62 67 67 57 341 351 48 21 48 59 275 252 153 108 77 101 100 94 88 66 107 115 312 259 275 290 287 322 21 201 273 347 332 284 276 273 272 271 257 256 262 257 264 273 277 280 283 287 291 291
181 175 181 191 186 162 147 147 149 154 154 104 83 110 109 103 97 90 90 92 77 67 65 65 62 58 59 58 55 57 63 55 33 32 40 62 77 69 77 75 63 58 1 21 109 88 68 254 259 184 149 104 72 62 79 78 80 90 107 111 287 302 318 284 298 324 323 213 269 323 315 282 282 284 273 266 250 254 262 256 262 268 271 277 283 286 287 285
218 201 197 200 194 188 188 184 181 185 190 180 144 136 115 93 86 85 86 93 84 57 52 53 48 45 44 38 37 53 62 57 31 23 28 48 70 62 70 81 67 62 12 39 95 106 142 236 141 130 142 97 97 53 69 92 337 293 181 163 232 261 238 238 288 325 312 261 271 332 313 279 292 308 286 283 285 272 266 263 265 265 269 276 280 280 280 280
233 215 202 198 195 191 189 195 204 209 209 212 203 170 124 67 49 52 75 89 66 17 27 38 36 33 26 20 24 63 63 56 36 23 24 33 44 69 74 72 64 88 200 68 79 88 120 221 158 125 56 67 96 56 84 158 243 301 222 195 205 213 230 265 321 356 1 338 15 25 338 288 308 303 271 300 341 295 280 274 267 267 272 273 274 277 274 275
236 217 202 194 187 181 178 184 197 205 210 212 202 186 149 36 24 20 39 80 38 339 2 15 20 20 13 9 10 89 67 40 30 23 27 28 24 114 94 38 50 105 182 173 92 105 102 141 170 144 102 68 63 20 226 156 131 307 221 192 183 163 197 268 326 42 10 285 271 70 353 273 305 288 265 303 327 296 293 285 271 270 271 267 269 271 265 271
228 211 201 195 187 179 177 180 179 186 197 198 192 193 214 338 350 346 0 55 16 323 355 357 4 16 14 13 18 90 53 337 14 21 23 29 23 71 110 5 48 95 161 136 52 108 154 123 83 78 86 73 56 252 210 139 122 259 196 138 136 145 188 210 126 152 237 287 316 38 129 251 292 273 265 323 316 297 297 287 276 270 264 262 262 259 259 275
193 190 191 190 188 188 187 188 185 183 187 189 191 204 244 306 315 320 71 77 341 321 10 348 10 19 15 30 37 67 55 6 37 5 9 32 23 37 91 96 145 164 129 120 73 265 173 181 196 118 79 92 213 217 174 142 146 269 183 119 139 165 172 146 117 164 334 357 312 320 51 218 271 273 300 350 309 293 287 275 272 264 257 259 256 249 258 279
140 161 176 184 188 191 195 201 201 201 204 206 209 228 253 288 301 329 87 98 308 336 11 341 347 343 338 24 36 40 44 32 33 360 6 38 20 31 84 99 119 117 75 118 167 227 210 210 194 135 110 203 228 223 155 154 268 245 126 79 63 78 77 92 112 141 45 2 264 276 8 309 271 279 305 347 257 261 266 265 267 264 263 264 258 250 255 280
130 146 159 174 183 188 198 205 208 211 215 222 233 237 243 279 346 63 66 100 314 341 339 350 340 333 342 14 22 18 34 26 12 10 21 45 34 43 86 106 96 107 40 31 126 219 314 50 217 136 156 192 151 75 126 157 151 120 111 66 49 35 43 70 71 95 63 307 255 258 313 38 298 282 252 223 225 216 229 270 282 277 280 279 268 257 257 281
125 138 146 161 173 181 192 196 195 200 210 218 219 201 198 295 58 91 85 260 305 339 354 12 354 355 11 51 16 359 10 10 8 18 23 26 25 25 48 53 12 43 12 360 4 304 353 29 264 207 191 144 98 82 34 68 108 110 105 70 53 345 3 28 354 44 86 273 257 258 291 125 238 266 251 242 260 236 213 257 273 279 289 290 282 273 267 281
110 130 143 150 158 166 173 173 169 170 185 187 177 168 156 21 26 86 307 312 335 336 6 1 334 15 20 28 25 345 344 360 7 32 42 18 36 22 27 72 27 25 360 322 314 328 334 242 293 38 188 128 118 186 358 13 56 85 71 54 42 344 0 7 326 343 220 246 241 240 314 238 230 253 263 266 273 265 234 244 257 269 284 289 291 291 282 283
86 102 125 142 150 156 159 159 149 141 152 157 158 152 87 72 30 243 293 333 3 328 338 305 318 1 353 14 16 334 338 353 352 27 89 68 67 39 1 148 136 33 334 289 325 351 339 293 332 54 267 153 150 204 330 308 343 62 102 79 75 55 21 323 288 303 282 267 264 261 282 276 273 268 250 244 261 272 268 266 269 274 281 287 293 295 288 287
67 77 98 124 133 146 156 160 154 136 140 149 151 121 57 62 208 163 316 288 291 334 351 310 325 359 38 46 351 310 28 350 334 21 9 24 54 17 337 328 356 71 99 71 15 27 357 299 287 137 280 331 133 193 136 148 77 76 173 131 129 148 139 270 245 250 287 290 288 296 240 215 253 278 248 241 267 282 285 281 279 283 287 293 297 295 291 293
60 68 85 99 113 140 151 160 169 149 151 152 114 67 81 132 239 142 265 262 284 332 310 349 41 42 17 358 316 317 92 293 332 40 21 31 83 214 318 305 333 72 113 46 302 178 64 268 255 286 299 8 93 253 112 96 84 233 178 108 120 174 148 179 200 190 264 313 295 266 233 215 228 278 286 299 296 292 293 291 298 305 305 306 302 298 297 297
60 64 78 84 97 132 143 159 171 156 163 157 73 56 136 203 220 167 190 252 282 292 278 338 46 54 353 324 330 11 71 273 331 28 17 50 160 204 216 249 260 103 129 122 241 196 18 282 278 345 335 71 78 256 71 76 215 168 120 193 228 157 118 111 239 4 66 356 284 250 257 288 320 297 302 344 343 321 337 334 322 318 316 314 308 307 306 303
56 56 64 72 77 96 133 157 154 152 163 133 77 90 196 222 178 185 254 291 253 243 84 43 13 44 335 301 314 320 335 316 339 18 344 4 187 195 205 243 207 190 183 159 226 198 134 283 293 4 193 15 46 73 36 36 120 113 182 218 198 93 89 102 334 348 40 298 279 278 261 293 339 306 313 352 348 316 312 317 319 315 315 316 314 314 313 310
51 52 50 51 61 74 113 141 143 152 142 81 80 126 167 50 236 247 304 337 274 7 72 100 272 61 185 236 303 298 322 342 358 29 9 305 278 165 154 230 196 238 266 143 162 348 116 290 301 291 166 322 354 50 352 3 36 112 175 159 103 134 196 71 94 334 357 301 288 295 288 268 210 239 287 311 305 299 295 298 308 299 300 310 313 316 318 317
63 58 36 32 54 73 87 121 140 148 98 66 92 158 74 176 238 254 302 336 322 63 76 165 224 65 175 181 282 299 339 355 351 30 79 260 320 184 153 149 201 228 299 134 141 298 92 16 293 276 211 322 350 176 245 322 25 41 63 37 29 141 172 181 132 166 210 272 284 314 322 285 220 210 221 257 277 288 289 292 285 276 292 307 311 315 319 319
91 76 29 23 60 81 87 111 106 83 72 83 149 160 26 195 138 51 18 6 11 41 51 199 140 44 240 219 260 309 1 19 243 15 318 307 304 286 67 104 165 155 230 117 115 318 57 113 261 287 321 319 297 220 203 186 132 65 52 339 329 70 168 227 46 134 144 165 221 310 313 282 252 189 197 247 273 274 271 278 275 280 299 310 312 316 319 320
87 74 19 21 70 87 89 89 62 60 80 87 119 97 27 64 75 47 31 33 33 33 73 153 127 92 243 342 349 306 333 342 349 265 293 293 241 321 5 97 78 41 59 31 4 328 26 159 228 296 321 284 257 262 179 165 156 146 172 203 187 139 126 108 306 306 103 149 192 155 279 281 273 151 196 239 254 261 268 270 276 292 306 313 316 320 322 321
71 64 10 24 70 82 83 74 41 49 92 67 56 68 57 71 63 48 39 40 35 36 64 103 90 87 115 50 343 222 299 305 265 228 273 236 211 302 349 30 20 15 58 358 305 301 61 105 257 279 266 253 277 331 71 145 142 125 159 184 148 136 125 143 242 267 113 158 173 113 250 274 268 154 199 239 244 263 280 283 288 301 309 313 318 323 326 326
66 57 25 29 58 60 70 72 27 32 64 70 86 70 57 70 54 41 33 25 16 16 40 53 32 40 52 17 59 84 290 249 207 191 302 259 297 352 348 14 18 11 36 8 345 15 22 54 7 287 278 312 332 10 71 72 97 109 254 141 143 172 136 153 186 192 192 202 161 105 255 270 282 178 195 254 280 287 292 293 294 302 309 314 318 320 325 329
70 59 44 40 47 60 72 93 74 55 32 65 86 53 43 66 58 46 33 24 25 42 63 51 30 49 53 57 84 86 354 2 318 1 25 236 287 344 352 80 78 61 82 171 136 41 314 255 30 328 322 340 343 352 357 342 50 171 253 239 171 135 103 124 166 121 248 219 171 162 246 263 278 303 276 281 303 301 296 298 297 299 305 312 316 317 321 326
71 62 51 49 58 71 82 108 124 118 126 88 69 26 23 60 48 51 93 82 72 96 105 118 153 118 120 101 91 60 49 78 278 332 30 252 257 272 243 189 173 147 143 172 164 143 195 210 120 30 313 307 306 315 322 317 299 251 243 241 227 170 140 167 156 120 240 231 165 180 240 267 284 297 295 297 309 305 301 306 308 305 305 308 312 313 317 323
64 57 42 44 55 65 72 80 99 118 141 114 75 12 40 90 28 50 93 98 88 100 115 144 186 168 96 68 56 345 289 168 210 334 306 257 258 253 225 209 192 179 149 141 150 128 95 215 210 186 213 239 254 266 277 347 303 282 278 254 230 191 155 133 110 177 210 175 201 236 244 272 287 289 294 302 310 307 306 312 315 316 316 315 315 315 317 321
68 45 8 29 45 53 57 53 56 84 141 128 99 14 354 326 309 23 52 56 64 78 91 89 54 57 31 30 31 293 266 295 103 219 245 243 258 291 276 213 199 191 147 133 145 102 86 293 249 199 225 243 253 266 272 291 273 270 274 263 235 183 157 163 199 218 162 103 267 261 239 245 275 282 289 297 301 304 306 310 314 316 318 319 319 318 318 321
78 87 70 69 53 30 40 35 39 60 73 80 98 88 350 0 5 19 9 19 40 41 42 30 15 13 314 262 57 296 302 343 329 261 284 284 294 330 349 87 110 84 111 117 149 122 117 249 244 197 251 255 248 262 268 260 253 252 258 262 251 193 179 199 225 222 154 191 256 267 270 264 273 284 290 290 292 296 298 303 307 309 313 317 317 316 316 319
89 97 79 77 88 85 66 32 37 59 56 51 76 63 24 41 31 346 282 3 19 14 40 31 337 337 287 231 77 331 297 346 321 296 304 296 294 321 328 318 81 78 63 80 311 122 133 243 234 190 281 274 252 259 264 245 259 270 263 260 245 211 206 215 237 234 196 236 256 271 284 284 279 279 279 283 288 294 297 301 305 307 312 314 313 312 312 315
92 96 92 91 84 57 46 33 37 65 45 30 60 45 2 82 12 328 311 63 13 339 28 16 309 307 207 181 136 240 250 219 255 262 223 271 307 291 257 278 112 65 2 32 355 26 149 267 261 110 312 293 274 286 294 240 245 274 281 279 256 227 234 232 244 244 223 251 264 274 283 282 276 274 276 284 291 297 297 301 307 311 313 312 309 310 311 314
88 95 102 99 73 19 26 28 36 77 40 14 47 26 335 38 305 300 275 96 49 334 345 328 298 299 89 96 161 256 277 263 244 258 258 254 264 252 261 300 79 57 353 6 350 13 140 294 357 56 344 296 310 357 322 288 268 270 284 289 264 201 219 221 224 211 199 232 271 288 276 267 271 285 300 302 304 308 303 305 314 315 314 312 307 308 311 315
84 92 95 96 79 8 18 23 30 69 66 349 28 14 336 332 310 339 35 15 51 38 355 325 300 318 358 356 300 286 303 300 279 280 278 261 258 262 271 281 282 178 186 153 46 358 104 66 358 33 327 278 313 340 314 310 327 306 275 262 200 204 242 250 247 222 200 198 221 247 248 261 289 310 317 313 313 314 311 314 320 314 309 309 308 310 314 316